Regional Weather Roundup
Issued by NWS

Home | Current Version | Previous Version | Graphics & Text | Print | Product List | Glossary On
Versions: 1 2 3 4 5 6 7 8 9 10 11 12 13 14 15 16 17 18 19 20 21 22 23 24 25 26 27 28 29 30 31 32 33 34 35 36 37 38 39 40 41 42 43 44 45 46 47 48 49 50
000
ASUS43 KMKX 011711
RWRWI

WISCONSIN REGIONAL WEATHER ROUNDUP
NATIONAL WEATHER SERVICE MILWAUKEE/SULLIVAN WI
1100 AM CST WED MAR 01 2017

NOTE: "FAIR" INDICATES FEW OR NO CLOUDS BELOW 12,000 FEET WITH NO
SIGNIFICANT WEATHER AND/OR OBSTRUCTIONS TO VISIBILITY.

WIZ001-002-006>008-014>016-023>028-011800-
NORTHWEST WISCONSIN

CITY           SKY/WX    TMP DP  RH WIND       PRES   REMARKS
SUPERIOR ARPT  CLOUDY    24  16  71 E7        29.91S WCI  16
ASHLAND        CLOUDY    21  17  84 N18G24    29.88R FOG     WCI   6
HAYWARD        CLOUDY    22  16  78 N13G18    29.83R WCI  10
SIREN          CLOUDY    25  19  80 N12       29.87R WCI  14
CUMBERLAND     CLOUDY    23  19  86 N13G22    29.82R WCI  11
RICE LAKE      CLOUDY    26  20  80 N15       29.83R WCI  13
CHETEK         CLOUDY    25  20  82 N5G17     29.82R WCI  19
LADYSMITH      CLOUDY    25  20  82 N18G25    29.78R WCI  12
EAU CLAIRE     CLOUDY    26  21  81 N13       29.79R HAZE    WCI  15
MENOMONIE      CLOUDY    28  21  75 NW18G24   29.82R WCI  15
NEW RICHMOND   CLOUDY    26  20  79 NW16      29.86R WCI  14
OSCEOLA        CLOUDY    27  20  75 N7        29.90R WCI  20
$$

WIZ003>005-009-010-017-018-011800-
NORTH CENTRAL WISCONSIN

CITY           SKY/WX    TMP DP  RH WIND       PRES   REMARKS
MANITOWISH WTR CLOUDY    19  18  94 N15G21    29.71S FOG     WCI   5
ARBOR VITAE    CLOUDY    22  19  87 N18G24      N/A  WCI   7
WOODRUFF       CLOUDY    22  19  87 N18G24      N/A  WCI   7
RHINELANDER    LGT SNOW  22  18  85 N9G22     29.66R FOG     WCI  12
EAGLE RIVER    CLOUDY    19  15  83 N14G22    29.67S WCI   6
LAND O LAKES   CLOUDY    19  17  90 N15G22    29.70S FOG     WCI   5
PHILLIPS       CLOUDY    22  18  85 N16G22    29.72R WCI   8
TOMAHAWK       LGT SNOW  22  18  85 N14G20    29.68R WCI   9
MEDFORD        LGT SNOW  23  19  86 N17       29.68R WCI   9
MERRILL        NOT AVBL
$$

WIZ029-030-035-036-043>047-011800-
CENTRAL WISCONSIN

CITY           SKY/WX    TMP DP  RH WIND       PRES   REMARKS
WAUSAU         LGT SNOW  23  20  88 N14G20    29.64R VSB 3/4 WCI  11
MOSINEE        SNOW      23  21  93 N15G26    29.65R VSB 3/8 WCI  10
MARSHFIELD     LGT SNOW  25  20  81 N15       29.66R VSB 3/4 WCI  13
STEVENS POINT  MIX PCPN  23  23  97 N12       29.64R VSB 1/2 WCI  12
WAUPACA        SNOW      30  26  87 NW14G20   29.62R VSB 1/2 WCI  19
WAUTOMA        SNOW      29  27  92 NW12      29.64R VSB 1/2 WCI  19
WISC RAPIDS    SNOW      26  24  92 N9        29.67R VSB 1/4 WCI  17
CAMP DOUGLAS   LGT SNOW  27  27 100 NW16G23   29.68R VSB 3/4 WCI  14
$$

WIZ011>013-019>022-031-037>040-048>050-011800-
NORTHEAST WISCONSIN

CITY           SKY/WX    TMP DP  RH WIND       PRES   REMARKS
ANTIGO         LGT SNOW  22  19  89 N17G24    29.60R VSB 1   WCI   8
SHAWANO        LGT SNOW  29  25  86 N12G20    29.61R WCI  19
OCONTO         CLOUDY    24  21  87 N16G24    29.57R VSB 1   WCI  11
STURGEON BAY   LGT SNOW  25  23  92 N24G36    29.54R VSB 3/4 WCI   9
GREEN BAY      SNOW      27  26  96 N15G22    29.58R VSB 1/2 WCI  15
MANITOWOC      LGT SNOW  28  25  88 N21G30    29.54R VSB 1   WCI  15
APPLETON       SNOW      27  27 100 N16G23    29.57R VSB 1/2 WCI  14
CLINTONVILLE   LGT SNOW  28  25  86 N9G24     29.61R VSB 3/4 WCI  20
OSHKOSH        SNOW      29  26  89 NW9       29.59R VSB 1/4 WCI  20
$$

WIZ032>034-041-042-053>061-011800-
SOUTHWEST WISCONSIN

CITY           SKY/WX    TMP DP  RH WIND       PRES   REMARKS
LA CROSSE      SNOW      30  27  88 NW18      29.76R VSB 1/2 WCI  18
SPARTA         LGT SNOW  28  27  94 NW12G18   29.73R WCI  18
VIROQUA        CLOUDY    28  27  94 NW12      29.69R VSB 1   WCI  18
BOSCOBEL       LGT SNOW  33  29  85 NW9       29.72R VSB 1   WCI  25
PRAIRIE DU CHI LGT SNOW  32  31  96 NW14G21   29.74R WCI  22
PLATTEVILLE    CLOUDY    33  33 100 NW15      29.67R WCI  23
$$

WIZ056-057-062-063-064-067-068-011800-
SOUTH CENTRAL WISCONSIN

CITY           SKY/WX    TMP DP  RH WIND       PRES   REMARKS
REEDSBURG      LGT SNOW  29  29  99 NW8       29.65R WCI  21
BARABOO/DELLS  SNOW      29  27  94 N10       29.63R VSB 1/2 WCI  20
LONE ROCK      LGT SNOW  33  27  78 N12G21    29.68R WCI  24
MINERAL POINT  LGT SNOW  34  34 100 NW12G17   29.64R WCI  25
MADISON        LGT SNOW  32  29  88 NW10G20   29.61R FOG     WCI  24
MIDDLETON      CLOUDY    34  34  99 NW15G21   29.62R WCI  24
WATERTOWN      LGT SNOW  32  32 100 N9        29.59R WCI  24
MONROE         LGT RAIN  34  34 100 NW13G18   29.62R WCI  25
JANESVILLE     CLOUDY    37  37 100 NW10      29.59R WCI  30
$$

WIZ051-052-058>065-066-070>072-011800-
SOUTHEAST WISCONSIN

CITY           SKY/WX    TMP DP  RH WIND       PRES   REMARKS
MILWAUKEE      HVY SNOW  33  31  92 NW13      29.55R VSB 1/4 WCI  24
WAUKESHA       LGT SNOW  30  30 100 NW9       29.57R VSB 3/4 WCI  22
MILWAUKEE/TIMM SNOW      32  28  86 NW8       29.57R VSB 1/4 WCI  25
RACINE         LGT SNOW  35  32  88 NW9       29.57R FOG     WCI  28
KENOSHA        CLOUDY    36  34  92 NW16      29.56R WCI  26
FOND DU LAC    HVY SNOW  29  25  85 NW16G23   29.60R VSB 1/4 WCI  17
SHEBOYGAN      SNOW      28  25  88 N12       29.55R VSB 1/2 WCI  18
WEST BEND      SNOW      30  30 100 NW10      29.58R VSB 1/4 WCI  21
JUNEAU         LGT SNOW  30  29  94 MISG      29.60R VSB 3/4
$$

LSZ147-162-011800-
LAKE SUPERIOR

STATION/POSITION TIME  TEMP    WIND        PRES    WAVE
                       AIR SEA DIR/SP/G            HT/PER
                 (UTC) (F)     (DEG/KT/KT) (MB)    (FT/S)
DEVILS ISLAND    1700   19      40/ 16/ 18 1013.6R
PORT WING        1640   23      30/ 12/ 15 1012.5R
SAXON HARBOR     1630   24      20/ 18/ 23 1010.8R
$$

LMZ867-665-643>646-011800-
LAKE MICHIGAN

STATION/POSITION TIME  TEMP    WIND        PRES    WAVE
                       AIR SEA DIR/SP/G            HT/PER
                 (UTC) (F)     (DEG/KT/KT) (MB)    (FT/S)
CHAMBERS ISLAND  1640   25     340/ 25/ 30 1000.7F
NORTHPORT PIER   1703   26     350/ 26     1001.0
SISTER BAY       1650   25      10/ 26/ 37   N/A
KEWAUNEE LAKESHO 1648   26     360/ 12/ 17  999.8R
SHEBOYGAN LAKESH 1700   28     310/ 17/ 19 1001.2R
PORT WASHINGTON  1640   30     320/  9/ 15 1002.4R
MILWAUKEE LAKESH 1650   32     330/ 10/ 12   N/A
KENOSHA   LAKESH 1700   35     310/ 15/ 19 1001.0
$$

TC  - TEMPERATURE IN CELSIUS
VSB - VISIBILITY IN STATUTE MILES
WCI - WIND CHILL INDEX
HX  - HEAT INDEX




USA.gov is the U.S. government's official web portal to all federal, state and local government web resources and services.